LFBMLFBZ

Guest
Details From LFBM - MONT DE MARSAN
To LFBZ - Biarritz-Anglet-Bayonne
Flight Number -
Tags decoded
Created
Modified
Stats Distance 51 nm / 95 km
Max Altitude 0 ft / 0 m
Waypoints 2
Social Downloads 3
Likes 0
Share VATSIM

Download

Looking for another format? Having issues loading an existing format? Contact us
Advertisement - Login to hide

Notes

Requested: LFBM LFBZ

Route

LFBM LFBZ

ID Type Via Altitude Latitude Longitude Leg Dist Tot Dist Heading (true) Name
O LFBM APT - 0 ft / 0 m 43.91150˚ -0.50937˚ - 0 nm - MONT DE MARSAN
O LFBZ APT - 0 ft / 0 m 43.46843˚ -1.52332˚ 51 nm 51 nm 239° / 239° Biarritz-Anglet-Bayonne

Altitude Profile

Advertisement - Login to hide

LFBM

Details ICAO LFBM
Name MONT DE MARSAN
Region France
Timezone Europe/Paris (UTC+2.0)
Stats Elevation 203 ft / 62 m (AMSL)
Location 43.911504° -0.509371°
Runways 1
Magnetic Variation 0.097° E

METAR

LFBM 220630Z AUTO 24004KT 200V260 9999 SCT007 OVC013 16/15 Q1014 TEMPO 2000 BR BECMG NSC

Decode

TAF

TAF AMD LFBM 220344Z 2203/2303 23005KT 9999 BKN012 PROB30 TEMPO 2203/2208 2000 BR OVC005 BECMG 2208/2212 CAVOK TEMPO 2212/2221 4000 SHRA BKN040TCU PROB30 TEMPO 2213/2221 BKN030CB TEMPO 2302/2303 3000 BR BKN005

Decode

Departure Runways

ID Width Length Bearing (true) Bearing (mag) Surface Threshold Offset Overrun Length
09 148 ft / 45 m 11,795 ft / 3,595 m 87.19° 87.09° Asphalt 0 ft / 0 m 1,328 ft / 405 m
27 148 ft / 45 m 11,795 ft / 3,595 m 267.22° 267.12° Asphalt 364 ft / 111 m 0 ft / 0 m

LFBZ

Details ICAO LFBZ (BIQ)
Name Biarritz-Anglet-Bayonne
Region France
Timezone Europe/Paris (UTC+2.0)
Stats Elevation 245 ft / 75 m (AMSL)
Location 43.468427° -1.523322°
Runways 1
Magnetic Variation 0.172° W

METAR

LFBZ 220630Z AUTO VRB03KT CAVOK 14/12 Q1015 TEMPO BKN005

Decode

TAF

TAF LFBZ 220500Z 2206/2306 29008KT 9999 SCT040 PROB30 TEMPO 2206/2208 BKN005 PROB30 TEMPO 2214/2306 BKN010 PROB30 2301/2306 3000 BR OVC004

Decode

Destination Runways

ID Width Length Bearing (true) Bearing (mag) Surface Threshold Offset Overrun Length
09 148 ft / 45 m 7,388 ft / 2,252 m 89.12° 89.29° Asphalt 673 ft / 205 m 0 ft / 0 m
27 148 ft / 45 m 7,388 ft / 2,252 m 269.14° 269.31° Asphalt 0 ft / 0 m 0 ft / 0 m

Approach Navaids

Runway Type Ident Frequency Range Bearing (true) Bearing (mag) Slope Elevation
09 Localiser BZ 111.34 MHz 18 nm / 33 km 89.35° 89.53° - 243 ft / 74 m (AMSL)
09 Glidescope BZ 111.34 MHz 10 nm / 19 km 89.13° 89.30° 3.00° 243 ft / 74 m (AMSL)
27 Localiser BZ 111.35 MHz 18 nm / 33 km 269.04° 269.21° - 234 ft / 71 m (AMSL)
27 Glidescope BZ 111.35 MHz 10 nm / 19 km 269.13° 269.30° 3.00° 234 ft / 71 m (AMSL)
27 DME BZ 111.35 MHz 18 nm / 33 km - - - 223 ft / 68 m (AMSL)

Popular Alternatives